Voltar ao catálogo

COSMOS 2251 DEB

AtivoLEO
NORAD 37975·DEBRIS·🇷🇺 Russia

Lançado Jun 16, 1993 de Plesetsk Cosmodrome

Loading…

Próximas Passagens (próximas 24 horas)

TLE

AtualizadoSource: Space-Track

Época: Sep 14, 2026, 22:11 UTC

1 37975U 93036BQA 26257.92496817  .00019573  00000-0  20423-2 0  9998
2 37975  73.9957 136.3501 0071140  60.5270 300.2982 14.87814131738397

Acompanhe COSMOS 2251 DEB em tempo real com AllMySat

Download on the App Store